Aigle Des Mers — FO4883 — position and weather

sailwx.info

Track history (hours):
 
Tides and Currents Weather Stations Pressure Air Temp Water Temp Dewpoint Dewpoint Depression Visibility Wind Speed Wind Dir Waves Ship Positions

Aigle Des Mers

Last reported at 2014-Nov-20 19:23 UTC. Time now 2014-Nov-21 19:18 UTC.
Position N 48°06' W 004°19'.

Type: Fishing. MMSI: 227318010.

Date/timePositionNaut miles runAvg speedWind from/ knotsBaromVisibWave heightAir tempDewpointWater temp
2014-Nov-20 19:23N 48°06' W 004°19'4 5.4
2014-Nov-20 18:33N 48°08' W 004°25'4 4.4
2014-Nov-20 17:33N 48°07' W 004°19'1 0.7
2014-Nov-20 16:33N 48°07' W 004°18'2 1.8
2014-Nov-20 15:33N 48°06' W 004°19'0 0.0
2014-Nov-19 23:33N 48°06' W 004°19'3 2.6
2014-Nov-19 22:33N 48°08' W 004°21'2 1.5
2014-Nov-19 21:33N 48°09' W 004°23'2 2.0
2014-Nov-19 20:33N 48°09' W 004°26'3 3.5
2014-Nov-19 19:34N 48°08' W 004°31'6 5.5
2014-Nov-19 18:33N 48°05' W 004°38'12 0.7
2014-Nov-19 00:06N 48°06' W 004°19'0 0.6
2014-Nov-18 23:34N 48°06' W 004°19'7 7.4
2014-Nov-18 22:34N 48°09' W 004°30'0 0.1
2014-Nov-18 21:33N 48°09' W 004°29'1 1.3
2014-Nov-18 20:33N 48°08' W 004°31'6 5.7
2014-Nov-18 19:34N 48°08' W 004°39'5 5.2
2014-Nov-18 18:34N 48°08' W 004°32'8 0.2
2014-Nov-17 04:34N 48°06' W 004°19'0 0.0
2014-Nov-17 03:33N 48°06' W 004°19'0 0.2
2014-Nov-17 02:34N 48°06' W 004°19'9 8.6
2014-Nov-17 01:34N 48°08' W 004°32'0 0.5
2014-Nov-17 00:33N 48°08' W 004°31'0 0.3
2014-Nov-16 23:33N 48°08' W 004°31'1 0.6
2014-Nov-16 22:33N 48°08' W 004°32'1 0.7
2014-Nov-16 21:33N 48°08' W 004°31'2 1.5
2014-Nov-16 20:33N 48°09' W 004°29'4 3.6
2014-Nov-16 19:33N 48°12' W 004°27'2 1.5
2014-Nov-16 18:33N 48°12' W 004°25'4 4.4
2014-Nov-16 17:34N 48°08' W 004°29'2 2.0
2014-Nov-16 16:33N 48°06' W 004°29'6 6.2
2014-Nov-16 15:33N 48°06' W 004°19'  
2014-Nov-11 19:08N 48°06' W 004°19'4 7.1
2014-Nov-11 18:33N 48°09' W 004°23'3 3.0
2014-Nov-11 17:34N 48°10' W 004°27'5 5.5
2014-Nov-11 16:33N 48°09' W 004°19'  
Track history (hours):
 
Tides and Currents Weather Stations Pressure Air Temp Water Temp Dewpoint Dewpoint Depression Visibility Wind Speed Wind Dir Waves Ship Positions

Aigle Des Mers

Last reported at 2014-Nov-20 19:23 UTC. Time now 2014-Nov-21 19:18 UTC.
Position N 48°06' W 004°19'.

Type: Fishing. MMSI: 227318010.

Date/timePositionNaut miles runAvg speedWind from/ knotsBaromVisibWave heightAir tempDewpointWater temp
2014-Nov-20 19:23N 48°06' W 004°19'4 5.4
2014-Nov-20 18:33N 48°08' W 004°25'4 4.4
2014-Nov-20 17:33N 48°07' W 004°19'1 0.7
2014-Nov-20 16:33N 48°07' W 004°18'2 1.8
2014-Nov-20 15:33N 48°06' W 004°19'0 0.0
2014-Nov-19 23:33N 48°06' W 004°19'3 2.6
2014-Nov-19 22:33N 48°08' W 004°21'2 1.5
2014-Nov-19 21:33N 48°09' W 004°23'2 2.0
2014-Nov-19 20:33N 48°09' W 004°26'3 3.5
2014-Nov-19 19:34N 48°08' W 004°31'6 5.5
2014-Nov-19 18:33N 48°05' W 004°38'12 0.7
2014-Nov-19 00:06N 48°06' W 004°19'0 0.6
2014-Nov-18 23:34N 48°06' W 004°19'7 7.4
2014-Nov-18 22:34N 48°09' W 004°30'0 0.1
2014-Nov-18 21:33N 48°09' W 004°29'1 1.3
2014-Nov-18 20:33N 48°08' W 004°31'6 5.7
2014-Nov-18 19:34N 48°08' W 004°39'5 5.2
2014-Nov-18 18:34N 48°08' W 004°32'8 0.2
2014-Nov-17 04:34N 48°06' W 004°19'0 0.0
2014-Nov-17 03:33N 48°06' W 004°19'0 0.2
2014-Nov-17 02:34N 48°06' W 004°19'9 8.6
2014-Nov-17 01:34N 48°08' W 004°32'0 0.5
2014-Nov-17 00:33N 48°08' W 004°31'0 0.3
2014-Nov-16 23:33N 48°08' W 004°31'1 0.6
2014-Nov-16 22:33N 48°08' W 004°32'1 0.7
2014-Nov-16 21:33N 48°08' W 004°31'2 1.5
2014-Nov-16 20:33N 48°09' W 004°29'4 3.6
2014-Nov-16 19:33N 48°12' W 004°27'2 1.5
2014-Nov-16 18:33N 48°12' W 004°25'4 4.4
2014-Nov-16 17:34N 48°08' W 004°29'2 2.0
2014-Nov-16 16:33N 48°06' W 004°29'6 6.2
2014-Nov-16 15:33N 48°06' W 004°19'  
2014-Nov-11 19:08N 48°06' W 004°19'4 7.1
2014-Nov-11 18:33N 48°09' W 004°23'3 3.0
2014-Nov-11 17:34N 48°10' W 004°27'5 5.5
2014-Nov-11 16:33N 48°09' W 004°19'  

Dump ship's entire track history